Wind_Speed
39 41 42 43 44 46 46 48 49 50 51 51 52 53 52 52 52 52 52 51 52 53 54 56 57 58 59 61 62 63 64 64 64 64 65 66 66 67 67 66 64 61 59
41 42 44 45 46 48 49 50 51 52 53 54 55 55 55 55 55 54 54 54 55 55 56 56 57 57 58 59 60 61 62 62 62 61 62 63 62 61 60 59 56 54 50
44 45 47 48 49 50 51 51 53 54 55 56 56 57 57 56 56 56 56 56 56 56 56 56 56 57 57 58 58 58 59 59 59 59 58 57 56 55 53 50 47 45 43
48 49 50 51 52 52 52 53 55 56 56 57 57 57 57 57 57 57 57 57 56 56 55 55 55 55 55 55 55 55 55 55 55 54 53 51 49 47 45 42 40 40 39
51 52 52 53 53 53 54 54 55 56 56 57 57 57 57 57 57 58 57 56 56 55 55 54 54 53 52 52 52 52 52 51 50 48 46 42 40 39 39 38 38 37 36
50 51 51 51 51 52 53 54 55 55 55 55 55 55 56 56 56 56 56 55 55 54 53 52 51 50 49 48 48 48 47 46 44 40 36 35 34 35 35 35 34 33 32
47 47 47 48 50 50 50 51 52 53 53 54 54 54 54 55 55 55 55 54 53 51 50 48 47 46 45 44 43 42 41 39 34 31 30 31 32 33 33 32 31 30 30
42 44 45 45 46 48 49 50 51 52 52 52 52 52 52 53 53 52 51 50 48 47 45 44 42 41 39 38 37 36 34 30 28 27 29 30 31 31 30 29 28 27 26
42 44 45 46 47 47 48 48 49 49 50 50 50 50 49 49 49 48 46 45 43 42 40 38 36 35 34 32 30 28 25 24 25 26 28 28 28 28 27 26 26 25 24
43 43 44 45 45 46 46 47 47 47 47 47 47 47 46 45 44 43 42 40 39 37 35 32 30 28 27 25 22 20 19 20 22 24 25 26 26 26 25 25 24 24 24
41 42 43 43 43 43 43 43 43 43 43 43 43 43 42 41 40 39 37 35 33 31 28 25 23 21 19 17 15 14 15 17 19 21 22 23 23 24 24 24 25 25 25
39 40 40 40 39 39 39 39 39 39 39 39 38 38 37 35 34 32 31 29 26 23 20 18 15 13 11 10 10 11 13 14 16 18 19 21 22 23 23 23 24 24 24
36 36 36 36 36 36 36 36 36 35 35 34 33 32 30 28 26 25 22 20 17 14 12 9 8 6 5 5 6 8 10 13 15 17 18 20 20 21 21 22 23 23 24
32 33 33 32 33 33 32 32 32 31 30 28 27 25 23 21 19 17 14 11 9 7 6 4 2 1 2 3 5 7 10 12 14 16 17 18 19 20 21 22 22 23 24
30 30 30 30 29 29 28 27 26 25 23 22 21 19 18 16 13 11 8 6 4 3 1 1 1 2 3 4 6 8 11 13 14 15 17 17 18 19 20 21 22 23 24
28 27 27 26 25 24 22 21 20 19 18 18 16 15 12 10 7 4 3 1 2 3 4 4 4 4 5 6 8 10 11 13 14 15 16 17 18 19 20 21 22 23 24
25 23 22 22 20 19 17 16 15 15 15 14 13 11 9 7 5 4 4 5 6 6 6 7 6 7 8 9 10 11 12 14 15 16 17 17 18 19 20 21 22 23 23
20 18 17 16 16 15 14 13 12 12 12 11 11 11 10 8 7 8 8 8 8 9 9 8 9 10 10 11 12 13 14 15 15 16 17 18 19 19 20 21 22 22 23
17 15 14 13 13 13 13 12 11 11 11 11 11 11 11 11 10 10 10 10 10 10 10 10 11 11 12 12 13 13 14 15 15 17 18 19 19 20 20 21 21 22 22
14 13 13 12 12 12 12 12 12 12 12 12 12 12 12 12 12 12 11 11 11 11 11 12 12 12 12 13 13 13 13 14 15 17 18 19 19 20 20 20 21 21 22
12 12 12 12 11 11 12 12 12 12 12 13 13 13 13 13 12 12 12 12 12 12 12 12 12 12 12 12 12 12 13 14 15 16 17 18 19 19 20 20 21 21 21
11 11 11 10 10 11 11 12 12 12 12 13 13 13 12 12 12 12 12 12 12 12 12 12 12 11 12 12 12 12 12 13 14 16 17 18 19 19 20 20 21 21 21
10 9 10 10 10 10 11 11 11 11 12 12 12 12 11 11 11 11 11 11 11 11 11 11 11 11 11 11 11 11 12 13 14 15 17 18 18 19 20 20 21 21 21
9 9 8 8 9 9 10 10 10 10 11 11 11 11 10 10 10 10 10 10 11 11 10 10 10 11 10 10 11 11 12 12 14 15 17 17 17 18 20 20 21 21 21
9 9 8 8 8 8 9 9 9 9 10 10 10 10 10 10 9 9 9 9 10 10 10 10 10 10 10 10 11 11 12 13 14 15 16 17 17 18 19 20 21 21 21
10 10 9 8 8 8 8 8 8 9 9 10 10 10 10 9 9 9 9 9 9 9 9 9 9 9 10 10 11 12 13 14 15 16 17 17 18 19 19 20 21 21 22
Wind_Direction
269 272 273 275 277 279 281 283 284 285 286 287 288 289 291 291 292 292 292 292 291 291 290 289 289 289 290 290 291 291 292 292 292 292 292 292 292 292 292 291 291 291 290
270 272 273 275 277 279 281 282 283 285 286 287 288 288 289 290 291 292 292 292 292 291 291 291 291 291 291 292 292 293 293 293 294 294 294 294 294 294 293 293 293 293 292
271 272 273 275 277 279 280 281 283 284 286 287 287 288 289 291 292 292 292 293 293 292 292 292 293 293 293 293 294 294 294 295 296 296 296 296 295 295 295 295 295 294 294
272 273 274 275 277 278 279 281 282 283 284 286 287 288 289 291 291 292 292 293 293 293 293 294 294 294 295 295 295 295 296 297 297 298 298 298 297 297 298 298 298 297 297
273 274 275 277 277 277 278 280 282 283 284 285 287 289 290 291 291 292 292 292 292 293 293 294 294 294 295 296 296 297 298 299 299 300 301 301 301 301 302 302 302 301 300
272 274 274 274 276 279 281 283 284 286 287 289 290 290 291 291 291 291 291 292 292 293 293 293 294 294 295 296 297 298 299 300 301 302 304 305 306 306 306 307 306 306 304
275 277 278 281 283 284 286 288 289 290 291 291 291 291 291 291 291 291 291 292 292 293 293 294 294 295 297 297 298 299 301 302 304 307 308 309 310 310 311 312 312 312 311
282 285 287 289 290 291 292 292 292 292 292 292 292 291 291 291 291 292 292 292 293 293 293 294 295 296 297 298 299 300 302 305 308 311 314 316 317 318 318 319 319 319 318
291 293 294 294 294 294 294 293 293 293 292 293 293 293 293 292 292 292 293 293 293 293 294 294 295 295 296 297 298 300 303 307 312 316 319 321 323 324 324 325 326 326 324
295 295 296 296 296 295 295 295 295 295 295 294 294 295 294 294 293 293 293 293 293 294 294 294 293 293 294 295 297 300 305 311 316 320 324 327 330 332 333 333 332 331 330
297 297 298 298 298 298 297 297 297 296 296 297 297 296 295 295 295 294 294 294 293 293 292 291 291 290 290 292 296 303 310 317 322 326 331 334 338 340 341 341 340 339 337
300 300 301 301 301 300 300 300 299 300 300 300 300 299 298 297 296 295 294 293 293 291 290 289 288 286 287 292 301 313 322 328 333 337 341 345 348 349 349 351 351 351 350
304 304 304 304 304 303 303 302 302 302 302 302 303 302 300 299 298 297 296 294 292 291 289 287 287 284 288 302 319 331 338 343 348 351 353 356 358 359 -0 1 3 4 4
309 308 308 308 307 307 307 305 305 306 307 307 307 306 304 302 300 299 298 295 293 292 292 297 291 293 335 352 354 356 357 1 3 5 7 8 10 11 11 11 11 12 14
312 312 311 311 311 311 311 311 312 314 315 314 313 312 310 307 304 300 296 295 293 291 304 104 106 72 45 31 25 20 17 16 16 16 16 17 18 19 19 18 19 21 22
316 315 315 315 316 317 318 319 321 323 324 325 325 325 325 323 321 319 320 1 109 112 111 107 97 82 67 59 49 39 33 31 29 27 26 25 25 25 25 25 25 26 27
322 321 321 323 325 328 330 333 335 335 338 342 347 353 359 7 22 47 77 98 104 105 105 102 95 87 81 72 61 52 46 42 39 36 33 31 30 30 29 29 28 29 29
331 331 333 336 339 344 348 350 353 356 359 5 13 20 29 41 59 77 90 98 100 100 100 98 95 93 88 78 68 60 54 49 45 41 37 34 33 32 32 31 30 30 30
344 346 349 353 357 360 3 7 13 17 20 24 30 37 45 57 70 81 89 94 97 98 98 98 97 95 89 80 73 66 60 54 49 44 40 36 34 32 32 32 31 31 31
355 359 3 6 10 15 20 25 28 30 33 37 42 49 57 66 74 80 86 90 94 97 99 98 97 95 88 83 77 70 64 57 52 47 42 37 34 33 31 30 30 31 31
6 10 13 18 22 25 29 32 34 36 41 46 51 57 63 68 74 78 83 89 94 98 99 98 97 94 89 84 78 72 64 57 52 47 43 38 34 32 31 30 30 31 31
9 16 21 25 29 31 32 34 37 41 46 50 54 58 63 68 73 78 85 90 93 96 98 98 96 92 88 82 75 68 60 53 48 44 40 36 33 31 31 30 30 30 31
12 18 24 27 29 30 32 36 39 43 47 50 54 57 61 67 74 80 86 89 91 94 95 93 91 89 85 78 70 62 55 48 44 42 39 36 33 33 33 32 31 31 30
17 20 23 24 26 28 31 35 39 43 45 47 50 55 60 68 75 80 85 89 91 92 91 90 88 85 80 73 63 56 51 46 44 43 41 37 34 34 34 33 32 32 32
23 24 23 25 27 29 32 36 40 43 45 47 51 55 61 69 76 82 88 92 93 92 91 90 86 81 75 67 59 53 48 46 44 43 43 39 37 37 38 37 37 37 37
31 30 31 31 30 30 34 40 43 46 48 50 53 57 63 71 80 86 90 93 95 94 92 89 84 78 71 64 57 53 50 48 45 44 43 42 41 41 41 40 40 40 41
Height
5797 5796 5794 5792 5790 5788 5786 5783 5781 5778 5775 5772 5769 5765 5762 5759 5755 5751 5748 5744 5740 5736 5731 5727 5722 5717 5712 5706 5700 5695 5689 5683 5679 5674 5666 5658 5651 5643 5636 5629 5623 5617 5611
5788 5786 5784 5782 5780 5778 5775 5772 5769 5766 5763 5759 5756 5752 5749 5745 5742 5738 5734 5730 5725 5721 5716 5712 5707 5702 5697 5691 5686 5680 5674 5667 5662 5658 5650 5642 5634 5626 5619 5613 5607 5601 5596
5777 5775 5773 5771 5768 5765 5762 5759 5756 5753 5750 5746 5742 5738 5735 5731 5727 5723 5719 5715 5711 5706 5702 5697 5693 5688 5683 5677 5671 5665 5659 5653 5646 5641 5634 5626 5619 5611 5605 5599 5593 5588 5583
5765 5763 5760 5758 5755 5752 5749 5746 5743 5739 5736 5732 5728 5724 5721 5717 5712 5708 5705 5700 5696 5692 5687 5683 5678 5674 5669 5663 5657 5651 5645 5639 5632 5626 5619 5612 5605 5598 5592 5587 5582 5577 5571
5752 5749 5747 5744 5742 5739 5736 5732 5729 5725 5722 5718 5714 5710 5706 5702 5698 5694 5689 5686 5682 5677 5673 5668 5664 5660 5655 5649 5644 5638 5632 5626 5620 5613 5607 5600 5594 5588 5582 5577 5571 5567 5561
5738 5736 5733 5730 5728 5725 5722 5718 5715 5711 5707 5704 5700 5696 5691 5687 5683 5679 5675 5671 5667 5663 5659 5655 5650 5646 5642 5637 5631 5626 5620 5614 5608 5603 5597 5591 5586 5580 5574 5568 5562 5557 5553
5725 5722 5720 5717 5715 5712 5708 5705 5701 5697 5693 5689 5685 5681 5677 5672 5668 5664 5660 5656 5653 5649 5645 5641 5637 5633 5630 5625 5620 5615 5609 5604 5599 5594 5590 5584 5579 5573 5567 5561 5555 5549 5544
5713 5711 5708 5705 5702 5699 5695 5691 5687 5683 5679 5675 5671 5667 5662 5657 5653 5650 5646 5642 5639 5635 5632 5629 5625 5621 5618 5614 5610 5606 5601 5597 5592 5588 5583 5578 5572 5566 5560 5554 5549 5543 5538
5702 5699 5696 5693 5690 5686 5682 5678 5674 5669 5665 5661 5656 5652 5648 5644 5639 5635 5632 5629 5626 5623 5620 5617 5614 5611 5608 5605 5602 5599 5595 5592 5588 5583 5578 5573 5567 5561 5555 5550 5544 5539 5534
5692 5688 5685 5681 5678 5673 5669 5665 5660 5656 5651 5647 5642 5638 5634 5630 5626 5622 5619 5617 5614 5611 5609 5606 5604 5602 5600 5598 5596 5594 5591 5588 5584 5580 5575 5569 5564 5558 5552 5546 5540 5535 5529
5681 5677 5673 5669 5665 5661 5656 5652 5647 5643 5638 5634 5630 5625 5621 5618 5614 5611 5608 5605 5603 5601 5599 5598 5597 5595 5594 5593 5592 5590 5588 5585 5581 5577 5572 5567 5561 5555 5549 5543 5537 5532 5526
5671 5666 5662 5658 5654 5649 5645 5640 5635 5631 5626 5622 5618 5613 5610 5606 5603 5600 5598 5596 5594 5593 5592 5591 5591 5591 5590 5590 5589 5588 5585 5582 5579 5575 5570 5565 5559 5554 5548 5542 5536 5530 5524
5661 5656 5652 5648 5643 5639 5635 5630 5625 5621 5617 5612 5608 5604 5601 5598 5595 5592 5590 5588 5587 5587 5587 5587 5587 5588 5588 5588 5587 5586 5583 5581 5577 5573 5568 5564 5559 5553 5548 5542 5536 5530 5524
5652 5648 5644 5639 5635 5630 5625 5621 5617 5612 5608 5604 5600 5597 5594 5591 5589 5587 5585 5585 5584 5584 5585 5585 5586 5586 5587 5586 5586 5584 5582 5579 5576 5572 5568 5564 5559 5554 5549 5543 5537 5531 5525
5645 5641 5636 5632 5627 5623 5618 5614 5609 5605 5601 5598 5594 5591 5588 5586 5585 5583 5582 5582 5583 5583 5584 5585 5585 5586 5586 5586 5585 5584 5582 5579 5576 5573 5569 5565 5560 5555 5550 5545 5540 5534 5528
5639 5634 5630 5626 5621 5617 5613 5609 5605 5601 5597 5594 5591 5588 5585 5583 5582 5581 5581 5582 5582 5583 5584 5585 5586 5587 5587 5586 5586 5584 5582 5580 5577 5574 5570 5566 5562 5558 5553 5548 5542 5537 5532
5634 5629 5625 5621 5617 5613 5610 5606 5603 5599 5595 5592 5589 5586 5584 5583 5582 5582 5582 5583 5584 5585 5586 5586 5587 5588 5588 5588 5587 5586 5584 5581 5579 5576 5572 5569 5565 5560 5556 5551 5546 5541 5536
5630 5626 5622 5619 5615 5612 5608 5605 5602 5599 5596 5593 5590 5588 5586 5584 5584 5584 5584 5585 5586 5587 5588 5588 5589 5589 5590 5589 5589 5587 5586 5584 5581 5578 5575 5571 5567 5563 5559 5554 5549 5544 5540
5629 5625 5621 5618 5615 5612 5609 5606 5603 5600 5598 5595 5593 5591 5589 5588 5587 5587 5588 5588 5589 5590 5590 5591 5591 5592 5592 5592 5591 5590 5588 5586 5584 5581 5578 5575 5571 5567 5562 5558 5553 5549 5544
5629 5625 5622 5619 5616 5613 5610 5608 5605 5603 5600 5598 5596 5595 5593 5592 5592 5592 5592 5592 5592 5593 5593 5594 5594 5595 5595 5594 5594 5593 5591 5590 5587 5584 5581 5578 5574 5570 5566 5562 5557 5553 5548
5629 5626 5623 5620 5618 5615 5613 5611 5608 5606 5604 5602 5600 5598 5597 5597 5596 5596 5596 5596 5596 5596 5597 5597 5598 5598 5598 5597 5597 5596 5594 5593 5590 5587 5584 5581 5578 5574 5570 5566 5562 5557 5553
5630 5627 5625 5622 5620 5618 5616 5614 5612 5609 5607 5606 5604 5603 5602 5601 5600 5600 5600 5600 5600 5600 5601 5601 5601 5601 5601 5601 5600 5599 5598 5596 5593 5590 5587 5584 5581 5578 5574 5570 5566 5561 5557
5630 5628 5626 5624 5622 5621 5619 5617 5615 5613 5611 5610 5608 5607 5606 5605 5604 5604 5604 5604 5604 5604 5604 5605 5605 5605 5605 5604 5603 5602 5601 5599 5596 5593 5591 5588 5585 5581 5577 5574 5570 5565 5561
5631 5629 5628 5626 5624 5623 5621 5619 5618 5616 5615 5613 5612 5610 5609 5609 5608 5608 5608 5608 5608 5608 5608 5608 5608 5608 5608 5607 5606 5605 5603 5601 5599 5596 5594 5591 5588 5585 5581 5577 5574 5570 5566
5632 5630 5628 5627 5626 5625 5623 5622 5620 5619 5617 5616 5615 5614 5613 5612 5612 5611 5611 5611 5611 5611 5612 5612 5612 5611 5611 5610 5609 5608 5606 5604 5602 5600 5597 5595 5592 5588 5585 5581 5578 5574 5570
5633 5631 5630 5628 5627 5626 5625 5624 5623 5621 5620 5619 5618 5617 5616 5615 5615 5615 5614 5615 5615 5615 5615 5615 5615 5614 5614 5613 5612 5611 5609 5607 5605 5603 5600 5598 5595 5592 5589 5586 5582 5579 5575